Wind_Speed
8 8 10 8 3 5 11 7 14 14 2 4 4 6 7 12 3 4 25 25 33 28 24 24 20 17 16 16 14 13 11 11 11 12 12 12 12 12 12 12 12 13 13 13 13 13 12 12 12
9 9 6 3 6 11 9 13 16 10 4 6 1 5 6 5 5 8 16 32 29 27 24 24 20 18 17 16 14 11 10 10 11 12 12 12 12 12 12 12 13 13 13 13 13 13 13 12 12
8 8 2 4 7 14 11 12 12 1 8 4 4 7 4 4 4 13 28 35 29 26 24 23 21 19 17 15 13 11 10 10 11 12 12 12 12 12 12 12 13 13 13 13 13 12 12 12 12
7 3 4 7 14 15 17 12 5 5 3 5 9 8 5 5 14 14 32 27 29 27 25 24 22 20 18 14 12 11 11 11 12 12 12 12 12 12 12 12 12 13 13 13 13 13 12 12 12
9 3 6 9 15 16 17 21 7 6 6 4 4 8 5 6 11 28 31 26 28 27 25 23 21 20 16 14 12 12 12 12 12 11 11 12 11 11 12 12 12 12 12 13 13 13 13 12 12
4 3 6 13 11 15 18 18 12 8 9 7 2 7 5 10 14 26 31 27 27 25 25 23 21 18 15 14 13 12 12 13 12 11 10 11 11 11 11 12 11 12 12 13 13 14 13 14 14
7 7 10 12 10 17 20 17 6 16 11 8 6 7 6 10 16 28 23 26 29 26 24 22 21 18 15 14 12 11 11 11 10 9 9 10 11 11 12 12 12 13 14 14 15 16 14 17 18
4 5 12 12 12 14 16 20 9 9 7 18 8 6 6 16 25 29 25 24 29 26 23 24 20 17 16 14 12 11 10 10 10 11 12 12 12 12 11 12 14 13 15 16 20 19 19 16 15
5 4 9 12 14 15 15 13 11 9 3 4 20 9 18 33 34 21 27 26 29 25 24 21 19 15 14 14 13 11 11 11 12 13 13 12 9 7 11 14 14 17 15 18 19 20 19 16 15
4 6 11 12 11 13 18 10 7 5 8 8 13 20 37 35 28 19 21 22 26 26 26 22 20 19 14 14 13 11 10 9 9 9 11 8 5 9 11 14 14 14 15 15 17 17 17 16 15
4 8 12 13 15 9 14 14 13 3 16 5 7 17 21 27 24 20 19 23 23 28 26 21 21 20 14 13 13 9 9 10 9 8 7 7 6 8 9 9 11 11 11 12 13 13 14 15 14
7 11 15 13 15 5 9 14 14 5 10 5 11 22 20 21 18 20 18 20 25 28 23 22 20 18 15 13 12 8 9 9 9 8 7 6 6 6 6 8 9 9 11 12 13 13 13 14 13
10 11 9 12 11 7 8 12 9 17 14 2 4 18 22 20 21 23 21 22 26 22 26 21 19 17 15 12 11 11 10 9 10 9 8 6 4 5 6 6 7 9 9 11 12 13 13 13 12
2 6 3 8 12 15 11 11 8 10 11 9 8 12 17 17 20 25 25 23 24 21 24 21 19 17 16 13 11 9 10 9 8 7 7 6 4 5 6 6 8 8 10 11 11 12 13 13 12
5 3 5 3 13 12 11 14 16 13 16 14 4 11 11 17 24 25 28 27 26 24 24 22 19 17 16 14 12 11 8 8 8 5 7 5 4 5 6 7 6 8 10 11 11 14 11 12 12
4 1 4 10 18 17 9 14 10 12 13 15 5 9 15 13 18 21 27 26 27 29 24 23 21 18 17 16 13 10 10 7 7 6 4 5 3 4 4 5 7 8 8 10 12 13 15 13 14
4 3 9 7 7 14 13 9 17 15 18 17 7 9 11 13 13 21 26 29 28 27 28 25 23 21 19 16 13 11 11 8 6 5 3 4 2 3 4 4 5 6 9 9 11 11 13 14 15
2 5 4 6 5 11 13 15 20 12 15 12 9 10 11 13 15 23 26 26 27 28 27 24 22 21 18 18 15 12 12 10 7 6 3 1 2 3 5 4 5 7 7 9 11 12 11 11 16
10 4 8 4 10 4 14 15 15 16 5 8 8 9 12 14 14 21 21 26 26 31 31 25 22 20 18 16 16 12 12 10 9 8 5 3 2 3 5 5 4 6 8 8 9 11 12 12 18
9 7 9 6 6 8 8 15 16 13 9 9 10 6 9 9 7 16 19 22 25 28 27 23 21 22 18 11 7 1 11 8 12 8 6 5 3 5 4 5 5 7 7 8 9 11 12 9 15
8 6 11 10 5 8 5 9 12 15 12 6 7 6 9 12 14 9 12 18 22 26 27 22 18 17 14 14 10 11 10 10 8 11 9 6 3 5 6 5 6 5 6 7 8 10 10 10 10
8 7 12 7 6 4 9 4 10 14 16 8 8 6 8 11 12 13 13 16 21 22 25 22 18 16 15 14 10 10 10 11 8 9 11 10 6 5 6 5 6 5 5 6 7 7 8 8 9
6 10 9 9 7 5 5 1 6 12 14 9 8 9 7 8 9 12 13 15 18 25 24 23 25 18 16 16 14 15 9 12 14 12 10 10 9 5 6 6 6 6 6 6 7 8 8 8 8
6 9 9 7 2 2 9 6 6 9 18 10 9 10 12 10 11 12 21 16 19 23 25 23 17 16 17 18 16 14 13 15 15 14 12 9 8 5 6 6 6 5 6 6 7 7 7 7 7
5 3 3 2 0 4 6 3 10 6 2 6 10 14 15 12 11 12 11 19 16 14 24 24 25 23 18 17 14 13 13 15 15 14 12 12 11 6 5 6 5 6 6 6 6 7 6 7 9
5 5 2 5 2 5 3 4 6 5 5 7 6 17 16 13 11 9 7 10 15 16 27 19 24 20 16 14 14 14 14 16 15 14 12 10 7 6 5 6 5 5 6 6 7 6 6 7 9
2 3 3 3 5 2 4 4 2 3 2 1 6 7 14 13 11 9 12 15 13 14 14 17 18 23 24 21 17 17 16 14 14 12 10 10 8 7 5 5 4 4 5 6 8 8 8 9 11
6 5 2 2 3 4 0 5 4 6 6 5 4 1 7 10 12 11 11 16 17 18 20 20 22 22 22 20 21 19 16 17 15 12 11 8 7 6 5 4 4 5 5 6 8 9 10 11 12
3 3 5 2 2 2 4 4 2 5 4 6 6 6 8 11 12 10 10 17 21 22 22 22 22 25 24 24 21 20 17 15 14 12 9 8 5 5 4 4 4 5 7 9 9 11 11 13 14
2 3 1 2 5 3 2 5 4 6 6 4 6 7 9 10 10 11 16 18 18 20 22 23 24 24 23 23 21 19 17 14 13 11 8 6 5 4 3 4 5 7 8 9 10 11 11 13 15
Wind_Direction
300 310 277 283 240 225 228 233 246 271 79 71 326 67 104 30 57 146 138 132 134 138 146 144 143 141 132 124 125 123 114 105 96 92 87 82 76 70 64 59 56 52 48 45 42 38 33 28 24
293 269 259 267 231 235 225 235 219 240 90 56 118 28 74 88 64 137 138 131 133 140 139 146 152 141 132 126 123 121 114 108 100 93 87 82 78 72 65 60 58 54 48 42 39 34 30 25 21
275 269 236 202 240 230 235 220 224 267 100 152 92 32 57 88 143 125 128 130 135 140 144 152 149 138 134 130 128 123 117 109 103 97 88 84 76 72 67 63 58 53 48 43 38 32 28 24 18
237 221 283 247 235 221 252 265 109 108 37 222 125 102 76 85 150 148 134 138 139 141 152 146 141 142 141 134 129 123 115 110 104 97 92 85 80 72 65 60 55 51 48 44 38 31 26 24 20
275 250 235 236 249 258 224 250 149 197 150 251 182 131 86 77 119 134 137 146 139 139 145 142 145 142 141 135 128 120 113 109 106 102 96 92 85 78 69 61 57 53 48 42 36 30 26 23 23
252 253 235 233 252 240 262 254 177 190 164 191 138 111 124 142 159 140 146 143 138 140 139 145 145 146 139 134 128 121 116 111 111 106 100 95 90 81 70 65 59 55 48 43 39 33 29 32 32
264 260 255 269 245 242 242 255 194 186 180 163 111 121 117 146 161 143 151 142 133 136 145 146 147 144 139 137 133 125 124 121 116 109 99 93 87 78 71 60 57 53 48 43 39 36 41 41 37
290 272 273 263 262 268 244 251 204 243 214 150 151 171 166 163 160 159 145 138 134 143 150 145 148 146 142 139 134 128 123 118 116 108 95 81 69 66 63 56 54 53 48 45 44 45 41 28 29
305 252 247 256 256 264 284 245 235 194 270 226 165 141 141 151 162 173 149 139 143 149 151 148 142 139 145 142 134 126 118 114 110 104 91 82 60 37 55 47 46 43 36 36 37 35 32 30 28
240 238 254 261 264 266 294 315 203 232 243 230 82 102 130 147 165 162 156 141 143 153 153 147 149 147 143 136 127 118 112 97 92 86 88 107 96 57 35 29 31 32 32 27 31 28 28 24 33
247 250 280 267 283 348 326 329 326 312 254 167 146 125 134 151 161 161 151 150 145 153 153 151 148 149 149 134 139 137 134 136 129 124 127 94 61 48 45 25 27 30 28 33 34 30 27 23 30
256 250 257 286 304 340 314 310 316 291 273 357 175 151 152 160 161 161 148 143 147 154 148 149 153 152 150 149 150 151 140 140 131 128 103 102 76 67 52 42 31 27 35 32 27 24 27 20 32
241 269 300 281 290 307 289 296 291 299 301 337 46 152 163 157 155 153 145 147 159 158 151 148 155 154 156 146 150 151 151 146 146 143 128 106 119 93 60 45 42 29 38 31 29 18 22 20 26
294 271 284 334 306 293 274 278 281 287 292 274 196 190 163 163 159 149 151 159 165 158 146 156 158 160 152 148 152 145 151 150 138 140 130 121 96 80 81 51 34 34 33 36 27 16 19 17 14
286 278 231 262 284 269 279 268 255 277 281 286 131 138 209 154 163 161 163 165 170 162 155 162 161 160 153 153 154 152 151 142 139 139 117 101 86 59 57 49 30 33 29 30 27 14 27 17 8
222 291 242 206 216 251 239 270 279 249 272 268 180 175 162 184 167 172 167 159 164 166 162 165 162 161 155 159 153 160 142 144 149 146 135 113 90 90 60 53 27 30 31 19 27 15 7 8 1
226 236 218 273 240 221 210 252 255 242 235 249 205 188 178 167 182 175 171 177 171 168 168 167 166 160 162 162 154 154 149 145 149 139 142 130 81 74 68 53 36 45 36 19 18 16 8 2 351
280 231 265 241 299 203 209 239 267 268 216 238 231 173 178 174 191 173 174 173 179 171 164 165 160 162 162 156 161 161 157 147 143 127 140 78 117 75 70 48 33 51 34 24 21 12 10 4 351
316 325 299 226 266 204 224 240 247 276 238 279 281 182 181 183 193 187 168 162 157 151 154 156 157 159 157 165 156 160 163 163 146 154 148 123 115 108 78 71 48 45 46 27 14 10 16 19 2
286 302 291 290 277 194 249 234 256 249 241 218 250 229 163 161 187 144 137 138 142 146 155 151 148 148 150 155 152 176 175 162 159 163 149 152 164 121 109 104 65 36 51 31 23 16 16 16 19
264 278 284 301 250 256 269 261 230 248 260 235 249 231 153 167 169 140 151 149 150 152 158 164 162 163 157 155 155 137 176 150 149 145 142 151 149 134 115 93 76 48 45 37 30 17 24 12 13
284 302 318 291 315 239 188 261 207 219 242 215 225 150 170 173 172 142 163 160 162 152 167 171 168 186 158 189 169 199 202 178 181 148 159 149 149 132 104 91 80 54 45 33 34 20 21 7 6
224 253 287 282 277 321 240 237 258 200 223 217 194 177 161 152 157 138 148 158 161 163 171 174 176 187 175 186 183 199 215 158 145 156 157 150 142 110 94 80 70 60 42 32 26 17 20 9 355
294 292 250 237 253 283 235 188 263 192 203 207 174 173 147 159 147 131 127 110 121 143 158 176 174 185 186 191 190 206 170 154 154 157 154 140 122 113 84 73 66 48 34 26 23 13 7 3 347
211 9 317 320 356 254 288 239 235 356 241 190 180 169 162 168 173 159 153 141 140 151 145 166 164 168 182 181 180 172 177 167 157 157 146 145 137 129 83 75 63 44 29 18 11 5 6 351 340
216 152 238 335 309 259 6 248 237 187 54 354 309 161 152 159 159 149 125 108 139 153 155 154 160 153 164 166 155 151 157 146 143 144 146 137 129 102 79 69 56 33 23 9 2 12 349 342 336
360 209 206 244 256 0 211 243 173 108 31 318 27 166 160 162 135 129 121 132 146 158 148 161 156 159 152 147 149 149 148 145 134 133 132 125 115 99 82 64 47 32 21 10 354 359 354 335 333
205 326 325 291 293 299 340 275 239 184 189 180 139 84 104 119 121 126 125 141 145 150 156 157 150 145 138 140 140 137 138 129 126 125 118 106 101 96 84 60 39 22 10 360 352 343 333 335 332
171 249 216 223 247 245 310 272 323 236 172 162 170 179 124 118 120 130 132 128 134 140 144 142 141 137 138 136 133 128 123 121 119 116 114 110 108 105 80 47 24 1 351 345 342 336 339 332 332
322 269 250 189 302 277 179 274 348 64 47 119 147 125 117 118 127 133 125 129 132 128 127 131 133 131 132 128 130 126 125 123 122 120 115 124 97 68 37 12 353 348 340 342 340 334 337 334 327
Height
787 787 787 787 803 789 786 776 759 752 742 735 733 741 752 763 765 793 774 777 781 788 793 799 802 805 808 810 812 813 814 816 816 817 817 817 818 818 818 818 818 818 818 817 816 816 815 814 814
787 787 787 786 797 795 780 757 757 746 735 735 736 744 749 774 768 771 774 778 782 789 794 799 803 806 809 811 812 814 815 816 817 818 819 819 819 820 819 819 819 819 818 818 817 816 815 814 814
788 785 789 790 786 786 777 749 744 740 737 741 746 745 754 773 771 770 775 778 785 791 796 799 803 807 810 812 814 815 816 817 818 819 820 820 821 821 820 820 819 819 819 819 818 817 816 815 814
787 786 785 785 777 769 762 743 745 746 742 738 743 765 764 766 772 772 775 781 787 792 795 801 805 808 811 813 815 816 817 818 819 820 821 821 821 821 821 820 820 820 820 819 819 818 817 816 815
786 782 792 784 776 762 748 737 743 757 751 747 743 765 772 772 771 774 778 784 788 791 797 802 806 809 811 814 816 817 818 820 821 822 822 822 822 822 822 822 821 821 821 820 820 819 818 817 816
791 782 787 788 776 762 746 733 741 748 745 747 750 766 773 773 774 777 780 785 788 792 798 803 807 810 813 815 817 818 819 820 822 823 823 823 823 823 823 823 823 822 822 821 820 820 819 818 817
792 788 785 779 772 765 748 731 742 741 742 744 744 765 771 773 775 778 781 786 788 794 799 803 808 811 814 816 818 819 820 820 822 823 824 825 824 824 825 825 824 824 823 823 822 821 821 820 819
790 788 789 779 775 766 744 733 733 736 736 726 738 764 769 768 773 779 782 787 790 796 801 804 808 811 814 816 818 820 821 822 823 824 825 827 827 827 827 826 826 825 825 824 823 823 823 822 821
788 795 790 781 775 762 742 738 726 724 731 727 727 731 744 763 772 778 781 787 792 797 802 806 809 812 814 817 819 821 822 823 825 825 826 827 829 829 829 828 828 828 827 826 825 825 824 823 822
794 793 784 771 764 761 749 742 731 732 730 745 737 738 739 760 770 774 778 785 791 796 802 806 810 812 815 817 820 821 823 825 826 827 828 829 830 830 830 830 830 829 829 828 827 826 825 825 823
789 792 779 769 763 761 759 749 739 738 730 746 737 752 744 758 769 774 779 784 790 795 802 806 810 813 816 818 820 823 824 826 827 829 830 830 831 831 832 832 832 831 831 830 829 828 827 826 825
791 782 778 772 766 763 765 754 751 741 733 734 744 739 745 757 765 772 778 784 790 796 801 805 810 813 817 819 821 823 825 827 828 831 831 832 832 833 833 833 833 832 832 831 830 829 828 827 826
789 785 779 773 769 766 763 763 760 749 732 733 740 744 754 753 759 770 777 783 790 796 800 805 809 813 816 819 822 824 826 827 828 831 831 832 832 833 834 834 834 833 832 832 831 831 829 828 827
786 782 784 783 778 768 768 766 761 748 738 737 746 757 754 758 763 766 774 781 789 795 797 804 809 813 816 818 822 824 827 828 829 831 831 832 833 834 834 834 834 833 833 833 832 831 830 829 828
783 789 784 786 784 776 767 770 764 753 741 737 740 757 734 752 763 764 770 777 787 793 798 804 808 812 815 819 822 825 826 827 829 831 832 832 834 835 835 835 835 834 834 833 833 832 830 830 829
789 791 793 774 778 772 773 777 759 753 748 745 742 748 745 757 758 768 770 775 784 791 796 803 806 811 814 818 822 824 827 828 830 832 832 832 834 835 836 835 835 835 835 834 833 832 831 830 829
787 791 789 780 769 769 771 777 762 750 747 746 745 749 750 758 762 766 770 773 780 789 795 801 804 809 813 817 821 824 826 828 831 832 833 833 834 836 836 836 835 835 835 835 833 833 832 830 828
793 789 781 782 771 764 770 771 758 743 744 744 743 749 750 757 760 764 769 773 782 787 794 800 804 809 813 815 820 823 826 828 830 832 833 835 834 836 836 837 836 835 835 835 834 833 832 831 829
778 779 780 770 772 765 772 769 756 753 744 745 741 743 749 752 757 762 765 773 779 783 791 799 804 810 812 816 818 823 825 827 829 830 833 836 836 836 836 837 837 836 836 836 835 833 832 832 829
780 782 781 768 762 770 768 766 756 750 749 745 743 739 744 749 754 758 767 772 777 781 790 797 803 806 810 817 821 824 828 827 824 828 832 836 836 836 835 835 836 837 836 835 836 835 833 833 831
778 782 778 775 769 762 765 770 760 748 743 739 737 736 744 748 749 744 767 772 777 782 787 795 802 807 810 814 818 820 832 827 828 826 829 835 836 836 833 835 834 836 837 835 835 835 834 833 832
781 781 773 773 778 791 764 792 756 750 747 742 740 743 745 749 755 756 765 772 777 780 786 794 800 807 803 817 815 821 826 826 829 828 832 833 834 835 833 834 833 836 836 835 835 835 834 834 833
787 779 776 773 774 781 765 786 756 743 748 743 741 743 745 749 751 757 762 773 776 778 783 792 796 803 800 805 815 823 823 824 829 831 835 833 832 833 834 833 833 835 836 835 835 834 834 835 834
772 776 768 769 771 791 768 774 761 746 737 736 734 740 746 751 755 759 767 770 772 776 782 790 790 797 804 812 817 819 820 821 827 831 833 833 831 833 833 833 835 834 836 835 834 835 833 833 833
775 783 794 795 794 788 759 766 755 737 729 726 728 735 743 751 756 758 762 763 773 780 782 792 792 800 807 811 813 814 820 821 824 828 830 833 833 831 833 833 835 834 836 836 835 833 832 831 831
770 773 792 793 787 778 758 771 755 729 729 731 727 725 738 746 754 760 763 766 776 783 783 791 793 795 804 810 809 814 822 822 825 826 829 831 832 832 834 833 835 835 836 835 834 833 832 831 829
766 780 762 778 768 787 767 746 738 735 737 734 732 733 737 745 752 761 766 771 777 779 782 791 796 799 797 800 810 816 820 822 825 829 831 830 830 832 833 834 835 836 834 834 835 832 831 830 829
774 772 779 782 783 772 759 757 762 751 742 740 739 739 745 750 755 764 769 776 778 782 789 794 795 798 798 807 810 817 822 821 824 828 830 830 831 831 832 834 835 836 835 833 832 832 831 829 828
775 773 769 767 768 779 773 760 740 747 736 744 744 744 748 752 758 765 771 776 779 785 789 794 798 798 804 806 811 814 819 823 823 826 828 830 832 832 832 834 835 834 833 832 832 831 829 827 826
760 761 761 775 769 765 764 772 742 741 740 741 743 746 750 756 762 767 772 777 782 787 790 795 798 801 805 803 808 813 818 821 824 825 828 831 832 832 833 833 833 832 832 831 830 829 826 825 824